DateTimeUTC,F1_A11,F1_S11,BsB_S11,BsG_S11,BsR_S11,BbsB_S11,BbsG_S11,BbsR_S11,BaB_A11,BaG_A11,BaR_A11,Tu_S11,T_S11,Uu_S11,U_S11,P_S11,T1_A11
2021-11-18T15:00:00Z,00000200,21000000,,,,,,,0000.09,0000.16,-000.18,18.9,25.8,,00.0,0635.8,30.9
2021-11-18T15:01:00Z,00000200,21000000,,,,,,,0000.09,0000.05,0000.34,18.9,25.8,,00.0,0635.7,30.9
2021-11-18T15:02:00Z,00000200,21000000,,,,,,,-000.01,-000.04,-000.11,18.9,25.8,,00.0,0635.7,30.9
2021-11-18T15:03:00Z,00000200,61000000,,,,,,,-000.31,0000.06,0000.18,18.9,25.8,,00.0,0635.7,30.9
2021-11-18T15:04:00Z,00000200,41000000,0000.57,0000.22,0000.01,-000.08,-000.06,0000.20,0000.09,0000.21,-000.31,19.3,25.8,,00.0,0636.7,30.9
2021-11-18T15:05:00Z,00000200,01000000,-000.11,0000.09,0000.28,-000.81,0000.06,0000.27,-000.17,-000.46,-000.11,19.4,25.8,,00.0,0636.8,30.9
2021-11-18T15:06:00Z,00000200,01000000,0000.40,-000.13,0000.15,-000.12,-000.25,0000.09,0000.08,-000.26,0000.06,19.5,25.8,,00.0,0636.8,30.9
2021-11-18T15:07:00Z,00000200,01000000,-000.23,0000.28,0000.05,0000.11,-000.06,0000.05,-000.23,-000.20,-000.35,19.4,25.8,,00.0,0636.8,30.9
2021-11-18T15:08:00Z,00000200,01000000,0000.88,0000.16,0000.27,-000.17,-000.06,0000.42,-000.25,-000.27,-000.09,19.4,25.8,,00.0,0636.8,30.9
2021-11-18T15:09:00Z,00000200,01000000,0000.21,-000.07,-000.15,0000.17,0000.04,-000.01,-000.11,0000.36,0000.19,19.3,25.8,,00.0,0636.8,30.9
2021-11-18T15:10:00Z,00000200,01000000,0000.63,0000.21,0000.08,0000.18,0000.09,-000.08,0000.09,-000.07,-000.57,19.2,25.7,,00.0,0636.8,30.9
2021-11-18T15:11:00Z,00000200,01000000,0000.35,0000.15,0000.11,0000.07,-000.20,0000.08,0000.11,-000.14,0000.21,19.1,25.7,,00.0,0636.8,30.9
2021-11-18T15:12:00Z,00000200,01000000,-000.32,0000.07,0000.25,-000.04,0000.05,0000.41,-000.23,0000.01,0000.07,19.0,25.6,,00.0,0636.8,30.8
2021-11-18T15:13:00Z,00000200,01000000,0000.50,0000.07,-000.09,-000.10,0000.05,0000.12,0000.01,-000.16,-000.00,19.0,25.6,,00.0,0636.8,30.8
2021-11-18T15:14:00Z,00000200,01000000,0000.43,-000.02,0000.13,-000.07,0000.01,0000.27,0000.53,0000.24,0000.32,19.0,25.6,,00.0,0636.8,30.8
2021-11-18T15:15:00Z,00000200,01000000,0000.60,0000.01,-000.17,-000.34,-000.07,0000.11,-000.32,0000.06,-000.39,19.0,25.6,,00.0,0636.9,30.8
2021-11-18T15:16:00Z,00000200,01000000,0000.00,-000.16,0000.44,-000.08,0000.39,-000.18,0000.09,0000.00,0000.18,19.0,25.6,,00.0,0636.9,30.8
2021-11-18T15:17:00Z,00000200,01000000,0000.32,0000.09,0000.03,0000.48,0000.18,0000.41,-000.15,0000.00,-000.41,19.1,25.6,,00.0,0636.9,30.9
2021-11-18T15:18:00Z,00000200,01000000,0000.39,0000.21,0000.34,-000.10,0000.48,0000.22,0000.16,-000.01,0000.38,19.1,25.6,,00.0,0636.9,30.9
2021-11-18T15:19:00Z,00000200,01000000,0000.41,-000.08,0000.00,0000.30,0000.28,0000.14,0000.02,0000.19,-000.33,19.2,25.6,,00.0,0636.9,30.9
2021-11-18T15:20:00Z,00000200,01000000,0000.66,-000.05,-000.02,0000.09,-000.29,-000.10,-000.06,-000.36,0000.35,19.2,25.6,,00.0,0636.9,30.9
2021-11-18T15:21:00Z,00000200,01000000,0000.14,0000.04,-000.05,0000.22,0000.21,-000.21,-000.20,0000.01,0000.02,19.3,25.7,,00.0,0636.9,30.9
2021-11-18T15:22:00Z,00000200,01000000,-000.02,0000.23,-000.26,0000.64,-000.13,0000.31,-000.29,-000.32,-000.25,19.3,25.7,,00.0,0636.9,30.9
2021-11-18T15:23:00Z,00000200,01000000,0000.16,0000.12,0000.09,-000.06,-000.06,0000.15,-000.02,-000.00,-000.25,19.2,25.7,,00.0,0636.9,30.9
2021-11-18T15:24:00Z,00000200,01000000,0000.44,0000.23,-000.05,0000.53,-000.05,0000.10,-000.23,-000.44,-000.00,19.1,25.7,,00.0,0636.9,30.9
2021-11-18T15:25:00Z,00000200,01000000,-000.08,0000.15,0000.25,0000.08,-000.20,0000.40,-000.09,0000.32,-000.38,19.0,25.6,,00.0,0636.8,30.8
2021-11-18T15:26:00Z,00000200,01000000,0000.18,0000.36,0000.35,-000.30,-000.04,-000.02,0000.08,-000.19,-000.49,19.0,25.6,,00.0,0636.9,30.8
2021-11-18T15:27:00Z,00000200,01000000,0000.13,0000.43,-000.21,-000.38,0000.02,-000.18,0000.15,0000.32,0000.49,18.9,25.5,,00.0,0636.8,30.8
2021-11-18T15:28:00Z,00000200,01000000,0000.46,0000.13,-000.00,-000.07,-000.18,0000.24,-000.15,-000.11,0000.11,18.8,25.5,,00.0,0636.8,30.8
2021-11-18T15:29:00Z,00000200,01000000,0000.18,0000.33,0000.30,-000.07,0000.26,0000.09,0000.30,-000.13,-000.25,18.8,25.5,,00.0,0636.8,30.8
2021-11-18T15:30:00Z,00000200,01000000,0000.87,-000.12,0000.05,-000.06,-000.06,-000.00,-000.16,0000.17,0000.23,18.8,25.5,,00.0,0636.8,30.8
2021-11-18T15:31:00Z,00000200,01000000,0001.23,0000.23,0000.07,0000.10,0000.46,0000.19,-000.11,-000.34,-000.16,18.9,25.4,,00.0,0636.8,30.8
2021-11-18T15:32:00Z,00000200,01000000,0000.32,0000.05,0000.44,-000.08,0000.08,0000.10,0000.24,0000.34,0000.05,18.9,25.5,,00.0,0636.8,30.9
2021-11-18T15:33:00Z,00000200,01000000,0000.58,0000.54,0000.19,0000.15,0000.08,-000.08,0000.12,0000.17,0000.40,19.0,25.5,,00.0,0636.8,30.9
2021-11-18T15:34:00Z,00000200,01000000,0000.06,0000.49,0000.11,0000.04,-000.18,0000.09,0000.14,0000.03,-000.04,19.0,25.5,,00.0,0636.8,30.9
2021-11-18T15:35:00Z,00000200,01000000,0000.88,0000.12,-000.02,-000.22,0000.19,0000.03,0000.04,0000.27,0000.18,19.1,25.5,,00.0,0636.8,30.9
2021-11-18T15:36:00Z,00000200,01000000,0000.12,0000.00,0000.10,0000.31,-000.02,0000.12,0000.02,0000.00,-000.16,19.1,25.5,,00.0,0636.8,30.9
2021-11-18T15:37:00Z,00000200,01000000,0000.36,0000.17,0000.08,-000.49,-000.20,0000.21,-000.09,-000.20,0000.32,19.1,25.5,,00.0,0636.8,30.9
2021-11-18T15:38:00Z,00000200,01000000,0000.58,-000.00,0000.45,0000.38,0000.40,0000.05,-000.15,0000.02,-000.11,19.2,25.6,,00.0,0636.8,30.9
2021-11-18T15:39:00Z,00000200,01000000,-000.31,0000.34,0000.30,0000.13,-000.10,0000.33,0000.20,0000.10,0000.02,19.1,25.6,,00.0,0636.8,30.9
2021-11-18T15:40:00Z,00000200,01000000,0000.21,0000.18,0000.21,-000.76,0000.31,-000.09,-000.20,0000.03,0000.15,19.0,25.6,,00.0,0636.8,30.8
2021-11-18T15:41:00Z,00000200,01000000,0000.50,0000.33,0000.49,0000.23,0000.06,-000.09,0000.38,-000.02,-000.12,18.9,25.5,,00.0,0636.7,30.8
2021-11-18T15:42:00Z,00000200,01000000,0001.16,0000.43,-000.09,-000.07,0000.30,-000.04,0000.09,0000.49,0000.28,18.9,25.5,,00.0,0636.7,30.8
2021-11-18T15:43:00Z,00000200,01000000,0000.37,0000.09,-000.15,0000.12,0000.14,-000.15,0000.23,-000.04,0000.18,18.8,25.4,,00.0,0636.7,30.8
2021-11-18T15:44:00Z,00000200,01000000,0000.31,0000.07,0000.31,-000.23,0000.17,0000.17,-000.08,0000.11,-000.11,18.8,25.4,,00.0,0636.7,30.8
2021-11-18T15:45:00Z,00000200,01000000,0000.39,0000.14,0000.24,-000.07,0000.14,0000.23,0000.22,0000.09,0000.01,18.8,25.4,,00.0,0636.7,30.8
2021-11-18T15:46:00Z,00000200,01000000,0000.59,-000.04,0000.38,0000.26,0000.00,-000.20,-000.12,-000.03,0000.05,18.9,25.4,,00.0,0636.8,30.9
2021-11-18T15:47:00Z,00000200,01000000,0000.33,0000.28,0000.29,-000.70,0000.03,0000.11,0000.14,-000.19,0000.06,18.9,25.4,,00.0,0636.8,30.9
2021-11-18T15:48:00Z,00000200,01000000,-000.12,-000.08,0000.37,-000.03,0000.07,0000.15,-000.14,-000.18,-000.29,19.0,25.4,,00.0,0636.8,30.9
2021-11-18T15:49:00Z,00000200,01000000,0000.61,-000.02,0000.27,-000.43,0000.34,0000.22,-000.10,0000.23,0000.00,19.0,25.4,,00.0,0636.8,30.9
2021-11-18T15:50:00Z,00000200,01000000,0000.22,0000.17,-000.01,0000.29,0000.02,0000.08,-000.20,-000.48,0000.00,19.1,25.5,,00.0,0636.8,30.9
2021-11-18T15:51:00Z,00000200,01000000,0000.96,0000.05,0000.37,0000.12,-000.25,0000.17,-000.19,0000.25,0000.06,19.1,25.5,,00.0,0636.8,30.9
2021-11-18T15:52:00Z,00000200,01000000,-000.36,0000.57,0000.09,0000.10,0000.22,0000.07,0000.14,-000.28,-000.39,19.1,25.5,,00.0,0636.9,30.9
2021-11-18T15:53:00Z,00000200,01000000,-000.15,0000.29,0000.14,-000.63,-000.22,0000.40,0000.01,-000.01,0000.19,19.2,25.5,,00.0,0636.9,30.9
2021-11-18T15:54:00Z,00000200,01000000,0000.40,0000.24,0000.54,0000.16,0000.08,0000.37,-000.34,-000.05,-000.06,19.2,25.6,,00.0,0636.9,30.9
2021-11-18T15:55:00Z,00000200,01000000,0000.13,0000.08,-000.00,0000.45,0000.10,0000.08,-000.12,-000.53,-000.26,19.2,25.6,,00.0,0636.9,30.9
2021-11-18T15:56:00Z,00000200,01000000,0000.53,0000.06,0000.04,0000.49,-000.08,0000.03,-000.10,0000.32,-000.33,19.2,25.6,,00.0,0636.9,30.9
2021-11-18T15:57:00Z,00000200,41000000,,,,,,,0000.63,0000.57,0000.83,19.2,25.6,,00.0,0637.0,30.9
2021-11-18T15:58:00Z,00000200,61000000,,,,,,,-000.21,-000.76,-000.64,18.8,25.7,,00.0,0636.0,30.9
2021-11-18T15:59:00Z,00000200,21000000,,,,,,,-000.47,0000.06,-000.02,18.7,25.8,,00.0,0636.0,30.9
